Location: Blairvadach
(56.2780°N, 6.9720°W)
Time: 22:40:27
(UTC+00:00)

Envisat - Pass Details

Date: 19 November 2019
Orbit: 764 x 766 km, 98.1° (Epoch: 10 December)

Event Time Altitude Azimuth Distance (km) Brightness Sun altitude
Rises 18:58:15 0° 187° (S) 3,224 6.4 -22.3°
Reaches altitude 10° 19:00:42 10° 196° (SSW) 2,302 5.7 -22.7°
Maximum altitude 19:05:25 38° 264° (W) 1,158 4.4 -23.3°
Drops below altitude 10° 19:10:11 10° 333° (NNW) 2,317 5.8 -24.0°
Sets 19:12:40 0° 341° (NNW) 3,248 6.5 -24.3°
